Location: Unspecified
(37.3333°N, 0.0000°E)
Time: 03:54:17
(UTC+00:00)

Tiangong 2 - Pass Details

Date: 29 May 2019
Orbit: 376 x 389 km, 42.8° (Epoch: 17 June)

Event Time Altitude Azimuth Distance (km) Brightness Sun altitude
Rises 21:34:53 0° 289° (WNW) 2,237 5.8 -22.1°
Reaches altitude 10° 21:37:01 10° 281° (W) 1,382 4.5 -22.4°
Enters shadow 21:38:28 22° 266° (W) 866 3.1 -22.5°
